Change the Weather History Date:

Thursday, November 15, 2012

  Actual Average Record
Temperature  
Mean Temperature 37 °F -  
Max Temperature 53 °F 53 °F 71 °F (2001)
Min Temperature 21 °F 35 °F 17 °F (2014)
Degree Days  
Heating Degree Days 28    
Moisture  
Dew Point 25 °F    
Average Humidity 65    
Maximum Humidity 93    
Minimum Humidity 30    
Precipitation  
Precipitation 0.00 in - - ()
Sea Level Pressure  
Sea Level Pressure 30.36 in    
Wind  
Wind Speed 1 mph (NE)    
Max Wind Speed 7 mph    
Max Gust Speed -    
Visibility 10 miles    
Events      
Averages and records for this station are not official NWS values.
T = Trace of Precipitation, MM = Missing Value Source: NWS Daily Summary

Daily Weather History Graph

Daily Weather History Graph

Search for Another Location

Airport or City:

Trip Planner

Search our weather history database for the weather conditions in past years. The results will help you decide how hot, cold, wet, or windy it might be!

Date:

Astronomy

Nov. 15, 2012 Rise Set
Actual Time 6:42 AM CST 4:50 PM CST
Civil Twilight 6:14 AM CST 5:18 PM CST
Nautical Twilight 5:42 AM CST 5:49 PM CST
Astronomical Twilight 5:11 AM CST 6:20 PM CST
Moon 8:37 AM CST (11/15) 6:42 PM CST (11/15)
Length of Visible Light 11h 03m
Length of Day
10h 07m
Waxing Crescent, 5% of the Moon is Illuminated
Nov 15
Waxing Crescent
Nov 20
First Quarter
Nov 28
Full
Dec 6
Last Quarter
Dec 13
New

Hourly Weather History & Observations

Time (CST) Temp. Windchill Dew Point Humidity Pressure Visibility Wind Dir Wind Speed Gust Speed Precip Events Conditions
12:15 AM 26.6 °F - 23.0 °F 86% 30.34 in 10.0 mi Calm Calm - N/A   Clear
12:35 AM 24.8 °F - 21.2 °F 86% 30.34 in 10.0 mi Calm Calm - N/A   Clear
12:55 AM 24.8 °F - 23.0 °F 93% 30.34 in 10.0 mi Calm Calm - N/A   Clear
1:15 AM 26.6 °F - 21.2 °F 80% 30.34 in 10.0 mi Calm Calm - N/A   Clear
1:35 AM 24.8 °F - 21.2 °F 86% 30.34 in 10.0 mi Calm Calm - N/A   Clear
1:55 AM 24.8 °F - 19.4 °F 80% 30.34 in 10.0 mi Calm Calm - N/A   Clear
2:15 AM 24.8 °F - 21.2 °F 86% 30.34 in 10.0 mi Calm Calm - N/A   Clear
2:35 AM 24.8 °F - 21.2 °F 86% 30.34 in 10.0 mi Calm Calm - N/A   Clear
2:55 AM 24.8 °F - 21.2 °F 86% 30.34 in 10.0 mi Calm Calm - N/A   Clear
3:15 AM 24.8 °F - 21.2 °F 86% 30.34 in 10.0 mi Calm Calm - N/A   Clear
3:35 AM 24.8 °F - 23.0 °F 93% 30.34 in 10.0 mi Calm Calm - N/A   Clear
3:55 AM 24.8 °F - 21.2 °F 86% 30.34 in 10.0 mi Calm Calm - N/A   Clear
4:15 AM 24.8 °F - 21.2 °F 86% 30.34 in 10.0 mi Calm Calm - N/A   Clear
4:35 AM 24.8 °F - 21.2 °F 86% 30.34 in 10.0 mi Calm Calm - N/A   Clear
4:55 AM 23.0 °F - 19.4 °F 86% 30.34 in 10.0 mi Calm Calm - N/A   Clear
5:15 AM 23.0 °F - 21.2 °F 93% 30.34 in 10.0 mi Calm Calm - N/A   Clear
5:35 AM 23.0 °F - 21.2 °F 93% 30.34 in 10.0 mi Calm Calm - N/A   Clear
6:15 AM 21.2 °F - 17.6 °F 86% 30.35 in 10.0 mi Calm Calm - N/A   Clear
6:35 AM 21.2 °F - 17.6 °F 86% 30.35 in 10.0 mi Calm Calm - N/A   Clear
6:55 AM 23.0 °F - 19.4 °F 86% 30.36 in 10.0 mi Calm Calm - N/A   Clear
7:15 AM 23.0 °F - 21.2 °F 93% 30.36 in 10.0 mi Calm Calm - N/A   Clear
7:35 AM 24.8 °F - 21.2 °F 86% 30.37 in 10.0 mi Calm Calm - N/A   Clear
7:55 AM 24.8 °F - 23.0 °F 93% 30.38 in 10.0 mi Calm Calm - N/A   Clear
8:15 AM 26.6 °F - 24.8 °F 93% 30.38 in 10.0 mi Calm Calm - N/A   Clear
8:35 AM 28.4 °F - 24.8 °F 86% 30.39 in 10.0 mi Calm Calm - N/A   Clear
8:55 AM 30.2 °F - 26.6 °F 86% 30.39 in 10.0 mi Calm Calm - N/A   Clear
9:15 AM 32.0 °F - 26.6 °F 80% 30.40 in 10.0 mi Calm Calm - N/A   Clear
9:35 AM 35.6 °F - 32.0 °F 87% 30.40 in 10.0 mi Calm Calm - N/A   Clear
9:55 AM 39.2 °F - 30.2 °F 70% 30.40 in 10.0 mi Calm Calm - N/A   Clear
10:15 AM 42.8 °F - 30.2 °F 61% 30.40 in 10.0 mi Calm Calm - N/A   Clear
10:35 AM 44.6 °F - 30.2 °F 57% 30.39 in 10.0 mi Calm Calm - N/A   Clear
10:55 AM 44.6 °F - 28.4 °F 53% 30.39 in 10.0 mi Calm Calm - N/A   Clear
11:15 AM 46.4 °F 45.2 °F 26.6 °F 46% 30.38 in 10.0 mi NE 3.5 mph - N/A   Clear
11:35 AM 48.2 °F - 26.6 °F 43% 30.38 in 10.0 mi NE 3.5 mph - N/A   Clear
11:55 AM 48.2 °F - 28.4 °F 46% 30.37 in 10.0 mi East 3.5 mph - N/A   Clear
12:15 PM 48.2 °F - 26.6 °F 43% 30.36 in 10.0 mi Calm Calm - N/A   Clear
12:35 PM 50.0 °F - 24.8 °F 37% 30.35 in 10.0 mi ENE 3.5 mph - N/A   Clear
12:55 PM 51.8 °F - 23.0 °F 33% 30.35 in 10.0 mi Calm Calm - N/A   Clear
1:15 PM 51.8 °F - 23.0 °F 33% 30.35 in 10.0 mi North 4.6 mph - N/A   Clear
1:35 PM 51.8 °F - 21.2 °F 30% 30.34 in 10.0 mi NNE 4.6 mph - N/A   Clear
1:55 PM 51.8 °F - 23.0 °F 33% 30.34 in 10.0 mi NNE 6.9 mph - N/A   Clear
2:15 PM 53.6 °F - 23.0 °F 30% 30.33 in 10.0 mi ENE 4.6 mph - N/A   Clear
2:35 PM 51.8 °F - 23.0 °F 33% 30.33 in 10.0 mi NNE 3.5 mph - N/A   Clear
2:55 PM 51.8 °F - 23.0 °F 33% 30.33 in 10.0 mi Calm Calm - N/A   Clear
3:15 PM 51.8 °F - 23.0 °F 33% 30.34 in 10.0 mi NW 3.5 mph - N/A   Clear
3:35 PM 51.8 °F - 24.8 °F 35% 30.34 in 10.0 mi Calm Calm - N/A   Clear
3:55 PM 51.8 °F - 23.0 °F 33% 30.35 in 10.0 mi NNW 4.6 mph - N/A   Clear
4:15 PM 50.0 °F - 23.0 °F 35% 30.35 in 10.0 mi North 3.5 mph - N/A   Clear
4:35 PM 50.0 °F - 23.0 °F 35% 30.34 in 10.0 mi Calm Calm - N/A   Clear
4:55 PM 50.0 °F - 23.0 °F 35% 30.34 in 10.0 mi NE 3.5 mph - N/A   Clear
5:15 PM 48.2 °F - 24.8 °F 40% 30.34 in 10.0 mi ENE 6.9 mph - N/A   Clear
5:35 PM 46.4 °F 42.9 °F 26.6 °F 46% 30.35 in 10.0 mi ENE 6.9 mph - N/A   Scattered Clouds
5:55 PM 44.6 °F 40.7 °F 28.4 °F 53% 30.35 in 5.0 mi ENE 6.9 mph - N/A   Scattered Clouds
6:15 PM 44.6 °F 42.2 °F 28.4 °F 53% 30.35 in 5.0 mi East 4.6 mph - N/A   Scattered Clouds
6:35 PM 44.6 °F - 26.6 °F 49% 30.36 in 10.0 mi Calm Calm - N/A   Partly Cloudy
6:55 PM 44.6 °F - 26.6 °F 49% 30.36 in 10.0 mi Calm Calm - N/A   Clear
7:15 PM 42.8 °F 40.1 °F 28.4 °F 57% 30.35 in 10.0 mi East 4.6 mph - N/A   Clear
7:35 PM 42.8 °F - 28.4 °F 57% 30.35 in 10.0 mi Calm Calm - N/A   Mostly Cloudy
7:55 PM 41.0 °F - 30.2 °F 65% 30.36 in 3.0 mi Calm Calm - N/A   Scattered Clouds
8:15 PM 42.8 °F - 28.4 °F 57% 30.36 in 10.0 mi Calm Calm - N/A   Clear
8:35 PM 42.8 °F - 26.6 °F 53% 30.36 in 10.0 mi Calm Calm - N/A   Partly Cloudy
8:55 PM 39.2 °F - 26.6 °F 61% 30.36 in 10.0 mi Calm Calm - N/A   Scattered Clouds
9:15 PM 39.2 °F - 28.4 °F 65% 30.36 in 10.0 mi Calm Calm - N/A   Clear
9:35 PM 39.2 °F - 26.6 °F 61% 30.37 in 10.0 mi Calm Calm - N/A   Partly Cloudy
9:55 PM 37.4 °F - 30.2 °F 75% 30.38 in 10.0 mi Calm Calm - N/A   Clear
10:15 PM 39.2 °F - 30.2 °F 70% 30.38 in 10.0 mi Calm Calm - N/A   Partly Cloudy
10:35 PM 37.4 °F - 30.2 °F 75% 30.38 in 10.0 mi Calm Calm - N/A   Partly Cloudy
10:55 PM 37.4 °F - 30.2 °F 75% 30.38 in 10.0 mi Calm Calm - N/A   Clear
11:15 PM 37.4 °F - 30.2 °F 75% 30.39 in 10.0 mi Calm Calm - N/A   Clear
11:35 PM 37.4 °F - 30.2 °F 75% 30.39 in 10.0 mi Calm Calm - N/A   Clear
11:55 PM 35.6 °F - 28.4 °F 75% 30.39 in 10.0 mi Calm Calm - N/A   Clear